Belize, Belize

1:14 PM CST on November 24, 2017 (GMT -0600)
Philip S W Goldson International

Weather History for MZBZ - July, 2011

Change the Weather History Date:

Friday, July 8, 2011

  Actual Average Record
Temperature  
Mean Temperature 84 °F -  
Max Temperature 88 °F 88 °F 91 °F (2005)
Min Temperature 80 °F 76 °F 73 °F (1999)
Cooling Degree Days 19    
Growing Degree Days 34 (Base 50)    
Moisture  
Dew Point 78 °F    
Average Humidity 76    
Maximum Humidity 94    
Minimum Humidity 61    
Precipitation  
Precipitation 0.00 in 0.30 in - ()
Sea Level Pressure  
Sea Level Pressure 29.84 in    
Wind  
Wind Speed 4 mph ()    
Max Wind Speed 12 mph    
Max Gust Speed -    
Visibility 8.3 miles    
Events      
Averages and records for this station are not official NWS values.
T = Trace of Precipitation, MM = Missing Value Source: Averaged Metar Reports

Daily Weather History Graph

Daily Weather History Graph

Search for Another Location

Airport or City:

Trip Planner

Search our weather history database for the weather conditions in past years. The results will help you decide how hot, cold, wet, or windy it might be!

Date:

Astronomy

Jul. 08, 2011 Rise Set
Actual Time 5:24 AM CST 6:32 PM CST
Civil Twilight 5:00 AM CST 6:55 PM CST
Nautical Twilight 4:32 AM CST 7:24 PM CST
Astronomical Twilight 4:03 AM CST 7:53 PM CST
Moon 12:23 PM CST (7/8) No Moon Set
Length of Visible Light 13h 55m
Length of Day
13h 07m
First Quarter, 55% of the Moon is Illuminated
Jul 8
First Quarter
Jul 15
Full
Jul 22
Last Quarter
Jul 30
New
Aug 6
First Quarter

Hourly Weather History & Observations

Time (CST) Temp. Heat Index Dew Point Humidity Pressure Visibility Wind Dir Wind Speed Gust Speed Precip Events Conditions
12:00 AM 82 °F - 78 °F 84% 29.86 in 12 mi Calm Calm - -  
12:00 AM 82.4 °F 92.4 °F 78.8 °F 89% 29.86 in 6.2 mi Calm Calm - N/A   Mostly Cloudy
3:00 AM 80 °F - 77 °F 88% 29.81 in 12 mi Calm Calm - -   Scattered Clouds
3:00 AM 80.6 °F 87.1 °F 77.0 °F 89% 29.81 in 6.2 mi Calm Calm - N/A   Mostly Cloudy
6:00 AM 81 °F - 78 °F 88% 29.86 in 12 mi ESE 5.8 mph - -  
6:00 AM 80.6 °F 88.1 °F 78.8 °F 94% 29.86 in 6.2 mi ESE 5.8 mph - N/A   Mostly Cloudy
7:00 AM 84.2 °F 94.1 °F 77.0 °F 79% 29.86 in 6.2 mi ESE 4.6 mph - N/A   Mostly Cloudy
8:00 AM 86.0 °F 99.3 °F 78.8 °F 79% 29.86 in 6.2 mi SE 5.8 mph - N/A   Mostly Cloudy
9:00 AM 87 °F - 78 °F 69% 29.88 in 12 mi ESE 6.9 mph - -   Scattered Clouds
9:00 AM 86.0 °F 99.3 °F 78.8 °F 79% 29.87 in 6.2 mi ESE 6.9 mph - N/A   Mostly Cloudy
10:00 AM 87.8 °F 99.7 °F 77.0 °F 70% 29.88 in 6.2 mi SE 4.6 mph - N/A   Mostly Cloudy
11:00 AM 87.8 °F 97.6 °F 75.2 °F 66% 29.87 in 6.2 mi East 6.9 mph - N/A   Mostly Cloudy
12:00 PM 89 °F - 77 °F 61% 29.86 in 12 mi ENE 11.5 mph - -   Partly Cloudy
12:00 PM 87.8 °F 99.7 °F 77.0 °F 70% 29.85 in 6.2 mi ENE 11.5 mph - N/A   Mostly Cloudy
1:00 PM 87.8 °F 102.5 °F 78.8 °F 75% 29.83 in 6.2 mi ENE 11.5 mph - N/A   Mostly Cloudy
2:00 PM 89.6 °F 102.2 °F 77.0 °F 66% 29.81 in 6.2 mi ENE 11.5 mph - N/A   Mostly Cloudy
3:00 PM 88 °F - 78 °F 66% 29.81 in 12 mi East 10.4 mph - -   Scattered Clouds
3:00 PM 87.8 °F 102.5 °F 78.8 °F 75% 29.80 in 6.2 mi East 10.4 mph - N/A   Mostly Cloudy
4:00 PM - - - N/A% 29.90 in 6.2 mi ENE 11.5 mph - N/A   Scattered Clouds
5:00 PM 87.8 °F 99.7 °F 77.0 °F 70% 29.80 in - North - - N/A   Mostly Cloudy
6:00 PM 85 °F - 78 °F 73% 29.82 in 12 mi East 8.1 mph - -   Partly Cloudy
6:00 PM 86.0 °F 96.9 °F 77.0 °F 74% 29.80 in - North - - N/A   Scattered Clouds
9:00 PM 84 °F - 78 °F 76% 29.86 in 12 mi East 8.1 mph - -   Mostly Cloudy
9:00 PM 84.2 °F 94.1 °F 77.0 °F 79% 29.85 in 6.2 mi East 8.1 mph - N/A   Scattered Clouds